Retour au catalogue

SNUSat 2

SNUSAT-2

ActifRadio amateurSSO
NORAD 43782·PAYLOAD·🇰🇷 South Korea

Lancé Dec 3, 2018 depuis Vandenberg Space Force Base

Loading…

Prochains Passages (prochaines 24 heures)

TLE

FraisSource: AMSAT

Époque: Sep 14, 2026, 09:23 UTC

1 43782U 18099AA  26257.39122103  .00005573  00000-0  23954-3 0  9990
2 43782  97.3966 309.4360 0009437 352.4394   7.6699 15.23025775426606

Suivez SNUSat 2 en temps réel avec AllMySat

Download on the App Store